Change the Weather History Date:

Sunday, March 3, 2013

  Actual Average Record
Temperature  
Mean Temperature 22 °F -  
Max Temperature 30 °F 24 °F 37 °F (2005)
Min Temperature 15 °F 9 °F -7 °F (2002)
Degree Days  
Heating Degree Days 42    
Moisture  
Dew Point 17 °F    
Average Humidity 79    
Maximum Humidity 93    
Minimum Humidity 64    
Precipitation  
Precipitation 0.00 in - - ()
Sea Level Pressure  
Sea Level Pressure 29.92 in    
Wind  
Wind Speed 17 mph (SE)    
Max Wind Speed 29 mph    
Max Gust Speed 33 mph    
Visibility 10 miles    
Events Snow    
Averages and records for this station are not official NWS values.
T = Trace of Precipitation, MM = Missing Value Source: NWS Daily Summary

Daily Weather History Graph

Daily Weather History Graph

Search for Another Location

Airport or City:

Trip Planner

Search our weather history database for the weather conditions in past years. The results will help you decide how hot, cold, wet, or windy it might be!

Date:

Astronomy

Mar. 03, 2013 Rise Set
Actual Time 6:58 AM CST 6:13 PM CST
Civil Twilight 6:28 AM CST 6:43 PM CST
Nautical Twilight 5:54 AM CST 7:17 PM CST
Astronomical Twilight 5:19 AM CST 7:52 PM CST
Moon 12:12 AM CST (3/3) 9:54 AM CST (3/3)
Length of Visible Light 12h 15m
Length of Day
11h 15m
Waning Gibbous, 63% of the Moon is Illuminated
Mar 3
Waning Gibbous
Mar 4
Last Quarter
Mar 11
New
Mar 19
First Quarter
Mar 27
Full

Hourly Weather History & Observations

Time (CST) Temp. Windchill Dew Point Humidity Pressure Visibility Wind Dir Wind Speed Gust Speed Precip Events Conditions
12:11 AM 21.2 °F 7.8 °F 15.8 °F 80% 30.06 in 10.0 mi SE 15.0 mph - N/A   Overcast
12:31 AM 21.2 °F 8.3 °F 15.8 °F 80% 30.05 in 10.0 mi SE 13.8 mph - N/A   Overcast
12:51 AM 19.4 °F 5.5 °F 15.8 °F 86% 30.05 in 10.0 mi SE 15.0 mph - N/A   Mostly Cloudy
1:31 AM 17.6 °F 5.0 °F 14.0 °F 86% 30.04 in 10.0 mi SE 11.5 mph - N/A   Clear
1:51 AM 17.6 °F 5.0 °F 14.0 °F 86% 30.04 in 10.0 mi SE 11.5 mph - N/A   Clear
2:11 AM 17.6 °F 5.7 °F 14.0 °F 86% 30.03 in 10.0 mi SE 10.4 mph - N/A   Clear
2:31 AM 17.6 °F 5.0 °F 15.8 °F 93% 30.03 in 10.0 mi ESE 11.5 mph - N/A   Clear
2:51 AM 17.6 °F 5.0 °F 14.0 °F 86% 30.02 in 10.0 mi ESE 11.5 mph - N/A   Clear
3:11 AM 17.6 °F 5.0 °F 15.8 °F 93% 30.01 in 10.0 mi ESE 11.5 mph - N/A   Clear
3:31 AM 17.6 °F 5.0 °F 14.0 °F 86% 30.01 in 10.0 mi SE 11.5 mph - N/A   Clear
3:51 AM 17.6 °F 5.7 °F 14.0 °F 86% 30.00 in 10.0 mi SE 10.4 mph - N/A   Clear
4:11 AM 17.6 °F 5.0 °F 14.0 °F 86% 29.99 in 10.0 mi SE 11.5 mph - N/A   Clear
4:31 AM 17.6 °F 3.7 °F 14.0 °F 86% 29.99 in 10.0 mi SE 13.8 mph - N/A   Clear
4:51 AM 17.6 °F 5.0 °F 14.0 °F 86% 29.99 in 10.0 mi SE 11.5 mph - N/A   Clear
5:11 AM 15.8 °F 3.4 °F 12.2 °F 86% 29.99 in 10.0 mi SE 10.4 mph - N/A   Clear
6:11 AM 15.8 °F 2.7 °F 12.2 °F 86% 29.99 in 10.0 mi SE 11.5 mph - N/A   Clear
6:51 AM 15.8 °F 2.7 °F 12.2 °F 86% 29.99 in 10.0 mi ESE 11.5 mph - N/A   Clear
7:11 AM 15.8 °F 2.1 °F 12.2 °F 86% 29.98 in 10.0 mi SE 12.7 mph - N/A   Clear
7:31 AM 15.8 °F 2.7 °F 12.2 °F 86% 29.98 in 10.0 mi ESE 11.5 mph - N/A   Clear
7:51 AM 17.6 °F 5.0 °F 12.2 °F 79% 29.98 in 10.0 mi SE 11.5 mph - N/A   Clear
8:11 AM 17.6 °F 3.7 °F 12.2 °F 79% 29.97 in 10.0 mi SE 13.8 mph - N/A   Clear
8:31 AM 17.6 °F 3.2 °F 14.0 °F 86% 29.96 in 10.0 mi SE 15.0 mph - N/A   Clear
8:51 AM 19.4 °F 4.5 °F 14.0 °F 80% 29.96 in 10.0 mi SE 17.3 mph - N/A   Clear
9:11 AM 19.4 °F 5.0 °F 15.8 °F 86% 29.96 in 10.0 mi SE 16.1 mph - N/A   Clear
9:31 AM 21.2 °F 6.8 °F 15.8 °F 80% 29.96 in 10.0 mi SE 17.3 mph - N/A   Clear
9:51 AM 21.2 °F 7.3 °F 15.8 °F 80% 29.96 in 10.0 mi SE 16.1 mph - N/A   Scattered Clouds
10:11 AM 23.0 °F 8.3 °F 17.6 °F 80% 29.95 in 10.0 mi SE 19.6 mph - N/A   Scattered Clouds
10:31 AM 24.8 °F 10.0 °F 17.6 °F 74% 29.94 in 10.0 mi SE 21.9 mph - N/A   Scattered Clouds
10:51 AM 24.8 °F 10.0 °F 19.4 °F 80% 29.94 in 10.0 mi SE 21.9 mph - N/A   Clear
11:11 AM 26.6 °F 12.4 °F 19.4 °F 74% 29.93 in 10.0 mi SE 21.9 mph - N/A   Clear
11:31 AM 26.6 °F 13.1 °F 19.4 °F 74% 29.93 in 10.0 mi SE 19.6 mph - N/A   Clear
11:51 AM 26.6 °F 12.0 °F 21.2 °F 80% 29.93 in 10.0 mi SE 23.0 mph - N/A   Clear
12:11 PM 26.6 °F 12.4 °F 21.2 °F 80% 29.92 in 10.0 mi SE 21.9 mph - N/A   Clear
12:31 PM 28.4 °F 13.8 °F 21.2 °F 74% 29.91 in 10.0 mi SE 25.3 mph - N/A   Clear
12:51 PM 28.4 °F 15.1 °F 21.2 °F 74% 29.90 in 10.0 mi SE 20.7 mph - N/A   Clear
1:11 PM 28.4 °F 14.4 °F 21.2 °F 74% 29.89 in 7.0 mi SE 23.0 mph - N/A   Clear
1:31 PM 28.4 °F 14.1 °F 21.2 °F 74% 29.88 in 10.0 mi SE 24.2 mph - N/A   Clear
1:51 PM 30.2 °F 16.5 °F 23.0 °F 75% 29.88 in 10.0 mi SE 24.2 mph - N/A   Clear
2:31 PM 28.4 °F 14.7 °F 23.0 °F 80% 29.88 in 10.0 mi SE 21.9 mph - N/A   Scattered Clouds
2:51 PM 28.4 °F 14.7 °F 23.0 °F 80% 29.87 in 10.0 mi SE 21.9 mph 27.6 mph N/A   Clear
3:31 PM 28.4 °F 14.7 °F 23.0 °F 80% 29.86 in 10.0 mi SE 21.9 mph 29.9 mph N/A   Scattered Clouds
4:11 PM 28.4 °F 13.8 °F 21.2 °F 74% 29.85 in 10.0 mi SE 25.3 mph 31.1 mph N/A   Overcast
4:31 PM 28.4 °F 14.7 °F 21.2 °F 74% 29.85 in 10.0 mi ESE 21.9 mph 27.6 mph N/A   Overcast
4:51 PM 28.4 °F 14.7 °F 21.2 °F 74% 29.85 in 10.0 mi ESE 21.9 mph 29.9 mph N/A   Overcast
5:11 PM 28.4 °F 14.7 °F 19.4 °F 69% 29.85 in 10.0 mi ESE 21.9 mph 27.6 mph N/A   Overcast
5:31 PM 28.4 °F 15.4 °F 19.4 °F 69% 29.85 in 10.0 mi ESE 19.6 mph 26.5 mph N/A   Overcast
5:51 PM 28.4 °F 15.4 °F 17.6 °F 64% 29.85 in 10.0 mi ESE 19.6 mph - N/A   Overcast
6:11 PM 28.4 °F 15.4 °F 17.6 °F 64% 29.84 in 10.0 mi ESE 19.6 mph - N/A   Mostly Cloudy
6:31 PM 26.6 °F 12.7 °F 17.6 °F 69% 29.84 in 10.0 mi ESE 20.7 mph - N/A   Scattered Clouds
6:51 PM 26.6 °F 13.1 °F 17.6 °F 69% 29.85 in 10.0 mi ESE 19.6 mph - N/A   Clear
7:11 PM 26.6 °F 13.1 °F 17.6 °F 69% 29.85 in 10.0 mi ESE 19.6 mph 25.3 mph N/A   Clear
7:31 PM 26.6 °F 12.7 °F 17.6 °F 69% 29.86 in 10.0 mi ESE 20.7 mph - N/A   Clear
7:51 PM 26.6 °F 12.7 °F 17.6 °F 69% 29.85 in 10.0 mi ESE 20.7 mph 25.3 mph N/A   Mostly Cloudy
8:11 PM 26.6 °F 13.4 °F 17.6 °F 69% 29.85 in 10.0 mi ESE 18.4 mph 25.3 mph N/A   Overcast
8:31 PM 26.6 °F 12.4 °F 17.6 °F 69% 29.85 in 10.0 mi ESE 21.9 mph - N/A   Overcast
8:51 PM 26.6 °F 12.0 °F 17.6 °F 69% 29.84 in 10.0 mi ESE 23.0 mph 27.6 mph N/A   Overcast
9:11 PM 26.6 °F 11.7 °F 17.6 °F 69% 29.84 in 10.0 mi ESE 24.2 mph 28.8 mph N/A   Overcast
9:31 PM 26.6 °F 11.4 °F 17.6 °F 69% 29.84 in 10.0 mi SE 25.3 mph - N/A   Overcast
9:51 PM 26.6 °F 11.1 °F 17.6 °F 69% 29.84 in 10.0 mi SE 26.5 mph 29.9 mph N/A   Overcast
10:11 PM 26.6 °F 11.1 °F 19.4 °F 74% 29.85 in 10.0 mi SE 26.5 mph 33.4 mph N/A   Overcast
10:31 PM 24.8 °F 8.4 °F 19.4 °F 80% 29.85 in 10.0 mi SE 27.6 mph - N/A   Overcast
10:51 PM 24.8 °F 9.0 °F 21.2 °F 86% 29.85 in 7.0 mi SE 25.3 mph 32.2 mph N/A   Overcast
11:11 PM 24.8 °F 8.1 °F 21.2 °F 86% 29.84 in 5.0 mi SE 28.8 mph 33.4 mph N/A   Overcast
11:31 PM 24.8 °F 9.3 °F 21.2 °F 86% 29.84 in 3.0 mi SE 24.2 mph - N/A   Overcast
11:51 PM 24.8 °F 8.7 °F 21.2 °F 86% 29.83 in 1.5 mi ESE 26.5 mph 31.1 mph N/A Snow Light Snow